GW6816 Weather Reports


time (UTC)temp
C
wind
direction
speed
KPH
gust
KPH
rain 1hr
cm
rain 24hr
cm
rain mn
cm
humidity
%
barometer
mb
20260507090128 13 251 4.8 20.9 0.00 0.23 0.10 84 1008.5
20260507085357 12 226 3.2 12.9 0.00 0.23 0.10 86 1008.5
20260507084857 12 248 4.8 12.9 0.00 0.23 0.10 87 1008.5
20260507084357 12 273 6.4 14.5 0.00 0.23 0.10 87 1008.5
20260507083857 12 262 8.0 14.5 0.00 0.23 0.10 86 1008.6
20260507083356 13 246 8.0 14.5 0.00 0.23 0.10 84 1008.5
20260507082857 13 269 8.0 14.5 0.00 0.23 0.10 83 1008.4
20260507082357 13 292 8.0 19.3 0.00 0.23 0.10 80 1008.3
20260507081857 14 311 8.0 19.3 0.00 0.23 0.10 78 1008.2
20260507081357 14 204 9.7 19.3 0.00 0.23 0.10 76 1008.1
20260507080857 14 261 9.7 19.3 0.00 0.23 0.10 75 1008.0
20260507080357 15 188 6.4 16.1 0.00 0.23 0.10 76 1008.0
20260507075856 15 202 4.8 14.5 0.00 0.23 0.10 78 1007.9
20260507075357 15 267 6.4 17.7 0.00 0.23 0.10 77 1007.9
20260507074851 15 266 6.4 17.7 0.00 0.23 0.10 75 1007.9
20260507074349 15 261 4.8 16.1 0.00 0.23 0.10 78 1007.8
20260507073848 15 257 4.8 14.5 0.00 0.23 0.10 80 1007.8
20260507073612 14 237 4.8 19.3 0.00 0.23 0.10 80 1007.8
20260507072848 14 182 3.2 19.3 0.00 0.23 0.10 80 1007.7
20260507072349 13 269 4.8 11.3 0.00 0.23 0.10 81 1007.6
20260507071849 13 220 6.4 19.3 0.00 0.23 0.10 81 1007.6
20260507071349 13 169 8.0 19.3 0.00 0.23 0.10 80 1007.6
20260507070849 13 260 8.0 17.7 0.00 0.23 0.10 80 1007.4
20260507070349 13 184 8.0 20.9 0.00 0.23 0.10 80 1007.4
20260507065848 13 213 8.0 22.5 0.00 0.23 0.10 82 1007.6
20260507065348 13 248 9.7 22.5 0.00 0.23 0.10 83 1007.4
20260507065112 13 232 9.7 20.9 0.00 0.23 0.10 83 1007.6
20260507064349 13 273 4.8 19.3 0.00 0.23 0.10 84 1007.4
20260507063848 13 274 4.8 16.1 0.00 0.23 0.10 85 1007.4
20260507063349 13 257 8.0 16.1 0.00 0.23 0.10 84 1007.3
20260507063105 12 262 6.4 16.1 0.00 0.23 0.10 85 1007.3
20260507062348 12 263 8.0 19.3 0.00 0.23 0.10 85 1007.1
20260507061849 12 277 9.7 27.4 0.00 0.23 0.10 85 1007.1
20260507061349 12 209 9.7 27.4 0.00 0.23 0.10 86 1007.1
20260507060849 12 237 8.0 17.7 0.00 0.23 0.10 87 1007.0
20260507060349 12 236 6.4 16.1 0.00 0.23 0.10 88 1007.0
20260507060118 12 262 6.4 16.1 0.00 0.23 0.10 88 1006.9
20260507055348 12 288 4.8 16.1 0.00 0.23 0.10 88 1006.8
20260507054849 12 279 4.8 12.9 0.00 0.23 0.10 88 1006.8
20260507054348 12 275 4.8 12.9 0.00 0.23 0.10 89 1006.8
20260507054111 12 244 3.2 11.3 0.00 0.23 0.10 89 1006.7
20260507053618 12 218 3.2 8.0 0.00 0.23 0.10 89 1006.6
20260507052849 12 260 4.8 17.7 0.00 0.23 0.10 90 1006.6
20260507052347 11 254 8.0 17.7 0.00 0.23 0.10 90 1006.5
20260507051845 11 259 6.4 14.5 0.00 0.23 0.10 90 1006.5
20260507051339 11 243 4.8 16.1 0.00 0.23 0.10 91 1006.5
20260507050834 11 262 4.8 16.1 0.00 0.23 0.10 91 1006.5
20260507050554 11 271 4.8 12.9 0.00 0.23 0.10 91 1006.5
20260507045834 11 271 4.8 12.9 0.00 0.23 0.10 91 1006.4
20260507045334 11 247 6.4 12.9 0.00 0.23 0.10 91 1006.3
20260507044833 11 295 4.8 12.9 0.00 0.23 0.10 91 1006.2
20260507044332 11 248 3.2 12.9 0.00 0.23 0.10 91 1006.2
20260507043832 11 282 3.2 9.7 0.00 0.23 0.10 91 1006.2
20260507043329 11 274 3.2 9.7 0.00 0.23 0.10 91 1006.2
20260507042830 11 281 1.6 6.4 0.03 0.23 0.10 91 1006.1
20260507042331 11 278 3.2 9.7 0.03 0.23 0.10 91 1006.1
20260507042050 11 271 3.2 9.7 0.03 0.23 0.10 91 1006.0
20260507041330 11 296 3.2 9.7 0.03 0.23 0.10 91 1006.0
20260507040829 11 298 3.2 9.7 0.03 0.23 0.10 91 1006.0
20260507040330 11 248 3.2 9.7 0.03 0.23 0.10 91 1006.0
20260507040114 11 268 4.8 11.3 0.03 0.23 0.10 91 1005.9
20260507035330 11 265 4.8 12.9 0.03 0.23 0.10 91 1005.9
20260507034828 11 271 6.4 12.9 0.03 0.23 0.10 91 1005.8
20260507034328 11 251 8.0 19.3 0.03 0.23 0.10 92 1005.8
20260507033821 11 280 9.7 19.3 0.03 0.23 0.10 92 1005.8
20260507033315 11 276 8.0 16.1 0.03 0.23 0.10 92 1005.8
20260507032810 11 285 6.4 14.5 0.00 0.23 0.08 92 1005.8
20260507032306 11 274 6.4 14.5 0.00 0.23 0.08 92 1005.8
20260507031802 11 265 4.8 12.9 0.00 0.23 0.08 92 1005.8
20260507031302 11 180 4.8 12.9 0.00 0.23 0.08 92 1005.8
20260507030802 11 296 3.2 11.3 0.00 0.23 0.08 92 1005.8
20260507030307 11 251 1.6 11.3 0.00 0.23 0.08 92 1005.8
20260507025801 11 294 1.6 6.4 0.00 0.23 0.08 92 1005.7
20260507025525 11 275 3.2 11.3 0.00 0.23 0.08 92 1005.7
20260507024802 11 290 3.2 12.9 0.00 0.23 0.08 92 1005.7
20260507023800 11 276 4.8 11.3 0.00 0.23 0.08 92 1005.6
20260507023025 11 277 4.8 12.9 0.00 0.23 0.08 92 1005.6
20260507022306 11 271 1.6 6.4 0.00 0.23 0.08 91 1005.6
20260507021301 11 265 1.6 9.7 0.00 0.23 0.08 91 1005.5
20260507021025 11 266 1.6 9.7 0.00 0.23 0.08 91 1005.5
20260507020301 11 219 1.6 4.8 0.00 0.23 0.08 91 1005.5
20260507015801 11 274 0.0 3.2 0.00 0.23 0.08 91 1005.5
20260507015257 11 259 0.0 4.8 0.00 0.23 0.08 91 1005.4
20260507014752 11 259 0.0 4.8 0.00 0.23 0.08 91 1005.3
20260507014246 11 259 0.0 3.2 0.00 0.23 0.08 91 1005.3
20260507013742 11 259 0.0 3.2 0.00 0.23 0.08 91 1005.3
20260507013243 11 259 0.0 3.2 0.00 0.23 0.08 90 1005.3
20260507012742 11 260 0.0 1.6 0.00 0.23 0.08 90 1005.2
20260507012242 11 260 0.0 3.2 0.00 0.23 0.08 91 1005.3
20260507011742 11 259 3.2 9.7 0.00 0.23 0.08 91 1005.2
20260507011243 11 259 4.8 11.3 0.00 0.23 0.08 91 1005.2
20260507010742 11 263 6.4 12.9 0.00 0.23 0.08 91 1005.2
20260507010242 11 272 6.4 12.9 0.00 0.23 0.08 91 1005.2
20260507010010 11 258 8.0 12.9 0.00 0.23 0.08 91 1005.2
20260507005242 11 240 8.0 14.5 0.00 0.23 0.08 91 1005.2
20260507004741 11 261 6.4 14.5 0.00 0.23 0.08 91 1005.1
20260507004240 11 263 8.0 16.1 0.00 0.23 0.08 91 1005.0
20260507003740 11 254 8.0 16.1 0.00 0.23 0.08 91 1005.0
20260507003251 11 271 6.4 16.1 0.00 0.23 0.08 92 1004.9
20260507002740 12 259 6.4 12.9 0.00 0.23 0.08 91 1004.9
20260507002240 12 247 6.4 12.9 0.00 0.23 0.08 91 1004.8
20260507002002 12 249 4.8 11.3 0.00 0.23 0.08 91 1004.8
20260507001235 12 268 3.2 9.7 0.00 0.23 0.08 91 1004.7
20260507000735 12 257 3.2 11.3 0.00 0.23 0.08 91 1004.6
20260507000241 12 253 4.8 11.3 0.00 0.23 0.08 91 1004.7
20260506235731 12 295 4.8 11.3 0.00 0.23 0.08 91 1004.7
20260506235458 12 247 3.2 11.3 0.00 0.23 0.08 91 1004.7
20260506234731 12 263 4.8 12.9 0.00 0.23 0.08 91 1004.6
20260506234230 12 248 4.8 12.9 0.00 0.23 0.08 91 1004.7
20260506233953 12 259 3.2 9.7 0.00 0.23 0.08 91 1004.7
20260506233231 12 260 3.2 11.3 0.03 0.23 0.08 91 1004.7
20260506232729 12 247 3.2 11.3 0.03 0.23 0.08 91 1004.7
20260506232230 12 260 3.2 9.7 0.03 0.23 0.08 91 1004.7
20260506231730 12 238 1.6 9.7 0.05 0.23 0.08 91 1004.6
20260506231230 12 265 0.0 1.6 0.05 0.23 0.08 91 1004.6
20260506230729 12 266 1.6 6.4 0.05 0.23 0.08 91 1004.6
20260506230446 12 265 3.2 11.3 0.08 0.23 0.08 91 1004.7
20260506225949 12 266 4.8 12.9 0.10 0.23 0.08 91 1004.6
20260506225449 12 249 3.2 12.9 0.10 0.23 0.08 92 1004.6
20260506224729 12 264 0.0 3.2 0.10 0.23 0.08 92 1004.6
20260506224230 12 263 0.0 3.2 0.10 0.23 0.08 92 1004.6
20260506223729 12 263 0.0 3.2 0.13 0.23 0.08 92 1004.6
20260506223230 12 263 0.0 3.2 0.10 0.20 0.05 92 1004.5
20260506222729 12 263 1.6 11.3 0.13 0.20 0.05 92 1004.4
20260506222229 12 263 3.2 11.3 0.13 0.20 0.05 92 1004.4
20260506221957 12 263 1.6 6.4 0.10 0.18 0.05 92 1004.4
20260506221229 12 262 3.2 8.0 0.10 0.18 0.03 92 1004.4
20260506220953 12 261 3.2 12.9 0.08 0.15 0.03 92 1004.4
20260506220229 12 238 4.8 14.5 0.05 0.15 0.00 92 1004.4
20260506215729 12 259 8.0 14.5 0.05 0.13 0.13 92 1004.6
20260506215229 12 250 6.4 16.1 0.05 0.13 0.13 92 1004.6
20260506214729 13 240 3.2 16.1 0.05 0.13 0.13 93 1004.6
20260506214229 13 254 3.2 16.1 0.05 0.15 0.13 93 1004.6
20260506213727 13 256 3.2 16.1 0.03 0.15 0.10 93 1004.6
20260506213227 13 281 1.6 6.4 0.03 0.18 0.10 93 1004.5
20260506212724 13 269 1.6 11.3 0.00 0.18 0.08 93 1004.5
20260506212225 13 273 1.6 11.3 0.00 0.23 0.08 93 1004.6
20260506211725 13 250 0.0 4.8 0.00 0.23 0.08 93 1004.5
20260506211225 13 246 0.0 0.0 0.00 0.30 0.08 93 1004.2
20260506210725 13 245 0.0 0.0 0.00 0.33 0.08 93 1004.1
20260506210444 13 246 0.0 1.6 0.00 0.36 0.08 93 1003.9
20260506205721 13 246 0.0 3.2 0.00 0.41 0.08 92 1003.9
20260506205437 13 246 1.6 3.2 0.00 0.43 0.08 92 1003.9
20260506204721 13 246 0.0 3.2 0.00 0.51 0.08 92 1003.8
20260506204220 13 246 0.0 3.2 0.00 0.56 0.08 92 1003.9
20260506203941 13 245 0.0 1.6 0.00 0.61 0.08 92 1003.9
20260506203441 13 245 0.0 4.8 0.00 0.66 0.08 92 1003.8
20260506202721 13 246 0.0 4.8 0.00 0.71 0.08 92 1003.9
20260506202220 13 255 0.0 3.2 0.00 0.76 0.08 92 1003.8
20260506201721 13 257 0.0 0.0 0.00 0.79 0.08 92 1003.7
20260506201437 13 258 0.0 0.0 0.00 0.79 0.08 92 1003.5
20260506200716 13 257 0.0 0.0 0.00 0.79 0.08 92 1003.3
20260506200444 13 257 0.0 0.0 0.00 0.79 0.08 92 1003.3
20260506195715 13 257 0.0 1.6 0.00 0.79 0.08 91 1003.3
20260506194715 13 257 1.6 6.4 0.00 0.79 0.08 91 1003.5
20260506194432 13 259 1.6 6.4 0.00 0.79 0.08 91 1003.5
20260506193713 13 292 0.0 3.2 0.00 0.79 0.08 91 1003.5
20260506193434 13 292 0.0 4.8 0.00 0.79 0.08 90 1003.4
20260506192710 13 292 1.6 6.4 0.00 0.79 0.08 90 1003.4
20260506192208 13 292 1.6 6.4 0.00 0.79 0.08 90 1003.5
20260506191707 13 13 0.0 3.2 0.03 0.79 0.08 89 1003.3
20260506191207 13 13 1.6 4.8 0.03 0.79 0.08 89 1003.2
20260506190705 14 13 1.6 4.8 0.05 0.79 0.08 88 1003.1
20260506190203 14 13 0.0 3.2 0.05 0.79 0.08 87 1003.0
20260506185703 14 13 1.6 6.4 0.05 0.79 0.08 87 1003.0
20260506185203 14 13 3.2 6.4 0.05 0.79 0.08 86 1003.0
20260506184702 14 13 1.6 6.4 0.05 0.79 0.08 85 1002.9
20260506184204 15 13 0.0 4.8 0.05 0.79 0.08 85 1002.8
20260506183924 15 13 1.6 8.0 0.05 0.79 0.08 85 1002.6
20260506183203 15 13 3.2 8.0 0.05 0.79 0.08 84 1002.5
20260506182933 15 161 1.6 8.0 0.05 0.79 0.08 84 1002.5
20260506182203 15 167 1.6 8.0 0.05 0.79 0.08 83 1002.8
20260506181703 15 167 3.2 8.0 0.05 0.79 0.05 83 1003.0
20260506181426 16 167 3.2 6.4 0.05 0.79 0.05 82 1002.9
20260506180704 16 111 1.6 4.8 0.00 0.74 0.03 79 1002.8
20260506180203 16 113 0.0 4.8 0.00 0.74 0.03 79 1002.9
20260506175710 16 108 0.0 0.0 0.00 0.74 0.03 79 1002.8
20260506175203 16 108 0.0 0.0 0.00 0.74 0.03 78 1002.5
20260506174704 16 108 0.0 0.0 0.00 0.74 0.03 79 1002.4
20260506174203 16 108 0.0 3.2 0.00 0.74 0.03 78 1002.4
20260506173704 16 108 1.6 4.8 0.00 0.74 0.03 78 1002.4
20260506173426 17 108 3.2 4.8 0.00 0.74 0.03 79 1002.3
20260506172701 17 108 3.2 6.4 0.00 0.74 0.03 77 1002.3
20260506172434 17 108 1.6 6.4 0.00 0.74 0.03 75 1002.2
20260506171701 17 107 0.0 3.2 0.00 0.74 0.03 71 1002.1
20260506171201 17 107 0.0 3.2 0.00 0.74 0.03 70 1002.1
20260506170701 17 107 1.6 4.8 0.00 0.74 0.03 71 1002.0
20260506170201 18 109 1.6 4.8 0.00 0.74 0.03 72 1001.9
20260506165701 18 108 0.0 3.2 0.00 0.74 0.03 73 1002.0
20260506165202 18 109 0.0 0.0 0.00 0.74 0.03 71 1002.3
20260506164701 18 109 0.0 0.0 0.00 0.74 0.03 71 1002.4
20260506164424 18 109 0.0 1.6 0.00 0.74 0.03 70 1002.3
20260506163702 18 109 0.0 4.8 0.00 0.74 0.03 69 1002.2
20260506163201 18 109 1.6 4.8 0.00 0.74 0.03 69 1002.3
20260506162702 18 109 1.6 6.4 0.00 0.74 0.03 68 1002.3
20260506162201 18 109 1.6 6.4 0.00 0.74 0.03 67 1002.3
20260506161701 18 109 1.6 6.4 0.00 0.74 0.03 66 1002.4
20260506161158 18 109 3.2 11.3 0.00 0.74 0.03 65 1002.4
20260506160652 18 109 6.4 11.3 0.00 0.74 0.03 64 1002.5
20260506160152 19 114 6.4 12.9 0.00 0.74 0.03 64 1002.5
20260506155650 19 119 6.4 14.5 0.00 0.74 0.03 63 1002.6
20260506155150 19 152 8.0 14.5 0.00 0.74 0.03 63 1002.6
20260506154650 19 118 6.4 14.5 0.00 0.74 0.03 62 1002.7
20260506154150 19 130 3.2 11.3 0.00 0.74 0.03 63 1002.7
20260506153650 19 85 3.2 6.4 0.00 0.74 0.03 64 1002.7
20260506153150 19 85 3.2 6.4 0.00 0.74 0.03 66 1002.8
20260506152650 19 86 3.2 6.4 0.00 0.74 0.03 63 1002.9
20260506152148 19 86 1.6 4.8 0.00 0.74 0.03 60 1003.0
20260506151646 19 86 1.6 4.8 0.00 0.74 0.03 62 1003.0
20260506151146 19 86 1.6 3.2 0.00 0.74 0.03 58 1003.1
20260506150646 19 86 1.6 4.8 0.00 0.74 0.03 60 1003.1
20260506150405 19 86 1.6 4.8 0.00 0.74 0.03 62 1003.1
20260506145646 19 86 1.6 4.8 0.00 0.74 0.03 61 1003.2
20260506145147 19 86 1.6 9.7 0.00 0.74 0.03 62 1003.2
20260506144647 19 86 1.6 9.7 0.00 0.74 0.03 60 1003.1
20260506144409 20 82 1.6 8.0 0.00 0.74 0.03 59 1003.0
20260506143859 20 59 1.6 8.0 0.00 0.74 0.03 58 1003.2
20260506143138 19 39 1.6 6.4 0.00 0.74 0.03 58 1003.2
20260506142909 19 40 1.6 6.4 0.00 0.74 0.03 60 1003.3
20260506142138 19 44 3.2 6.4 0.00 0.74 0.03 62 1003.2
20260506141636 19 44 3.2 9.7 0.00 0.74 0.03 60 1003.2
20260506141400 19 47 3.2 9.7 0.00 0.74 0.03 60 1003.3
20260506140632 19 43 3.2 6.4 0.00 0.74 0.03 62 1003.4
20260506140356 19 43 3.2 6.4 0.00 0.74 0.03 59 1003.4
20260506135631 19 43 3.2 8.0 0.00 0.74 0.03 62 1003.5
20260506135132 19 40 4.8 12.9 0.00 0.74 0.03 60 1003.5
20260506134631 19 31 4.8 12.9 0.00 0.74 0.03 60 1003.5
20260506134132 19 41 4.8 9.7 0.00 0.74 0.03 61 1003.5
20260506133632 19 45 4.8 11.3 0.00 0.74 0.03 62 1003.5
20260506133132 19 23 4.8 11.3 0.00 0.74 0.03 59 1003.4
20260506132632 19 16 4.8 9.7 0.00 0.74 0.03 59 1003.5
20260506132405 19 9 4.8 9.7 0.00 0.74 0.03 58 1003.6
20260506131632 20 53 3.2 9.7 0.00 0.74 0.03 59 1003.6
20260506131131 20 12 3.2 6.4 0.00 0.74 0.03 56 1003.6
20260506130630 20 5 3.2 6.4 0.00 0.74 0.03 54 1003.7
20260506130130 20 290 3.2 6.4 0.00 0.74 0.03 55 1003.7
20260506125629 20 276 3.2 11.3 0.00 0.74 0.03 55 1003.9
20260506125130 20 278 6.4 14.5 0.00 0.74 0.03 56 1003.9
20260506124631 20 263 4.8 14.5 0.00 0.74 0.03 56 1004.0
20260506124130 20 294 3.2 11.3 0.00 0.74 0.03 58 1004.0
20260506123631 20 22 4.8 16.1 0.00 0.74 0.03 59 1004.0
20260506123129 19 263 4.8 16.1 0.00 0.74 0.03 58 1004.1
20260506122629 19 281 3.2 11.3 0.00 0.74 0.03 59 1004.2
20260506122129 19 286 4.8 16.1 0.00 0.74 0.03 57 1004.1
20260506121629 20 288 4.8 16.1 0.00 0.74 0.03 58 1004.1
20260506121131 20 263 4.8 12.9 0.00 0.74 0.03 58 1004.1
20260506120631 20 296 4.8 14.5 0.00 0.74 0.03 57 1004.1
20260506120130 20 248 4.8 14.5 0.00 0.74 0.03 59 1004.1
20260506115629 20 286 4.8 22.5 0.00 0.74 0.03 59 1004.1
20260506115403 20 301 6.4 22.5 0.00 0.74 0.03 57 1004.2
20260506114848 20 183 4.8 16.1 0.00 0.74 0.03 59 1004.2
20260506114131 20 250 4.8 16.1 0.00 0.74 0.03 59 1004.1
20260506113629 20 276 6.4 17.7 0.00 0.74 0.03 60 1004.2
20260506113354 19 265 8.0 19.3 0.00 0.74 0.03 60 1004.1
20260506112629 19 275 8.0 19.3 0.00 0.74 0.03 60 1004.0
20260506112142 19 221 8.0 14.5 0.00 0.74 0.03 61 1004.2
20260506111629 19 263 8.0 17.7 0.00 0.74 0.03 61 1004.4
20260506111129 19 266 6.4 17.7 0.00 0.74 0.03 62 1004.4
20260506110853 19 265 6.4 19.3 0.00 0.74 0.03 63 1004.4
20260506110132 18 207 9.7 24.1 0.00 0.74 0.03 61 1004.4
20260506105855 19 280 9.7 24.1 0.00 0.74 0.03 61 1004.5
20260506105132 19 261 6.4 20.9 0.00 0.74 0.03 64 1004.4
20260506104630 19 265 6.4 25.7 0.00 0.74 0.03 63 1004.5
20260506104349 18 223 4.8 25.7 0.00 0.74 0.03 67 1004.5
20260506103629 18 277 4.8 20.9 0.00 0.74 0.03 67 1004.4
20260506103130 18 190 6.4 19.3 0.00 0.74 0.03 67 1004.6
20260506102629 18 276 6.4 22.5 0.00 0.74 0.03 65 1004.6
20260506102129 18 191 6.4 22.5 0.00 0.74 0.03 66 1004.8
20260506101630 18 221 8.0 22.5 0.00 0.74 0.03 67 1004.7
20260506101129 18 209 8.0 24.1 0.00 0.74 0.03 66 1004.6
20260506100629 18 208 6.4 24.1 0.00 0.74 0.03 65 1004.6
20260506100129 18 171 6.4 16.1 0.00 0.74 0.03 64 1004.5
20260506095629 18 274 8.0 19.3 0.00 0.74 0.03 64 1004.6
20260506095353 18 177 6.4 19.3 0.00 0.74 0.03 66 1004.5
20260506094630 18 248 6.4 16.1 0.00 0.74 0.03 66 1004.5
20260506094129 18 199 6.4 16.1 0.00 0.74 0.03 65 1004.5
20260506093629 18 173 6.4 16.1 0.00 0.74 0.03 66 1004.6
20260506093129 18 260 4.8 16.1 0.00 0.74 0.03 67 1004.5
20260506092854 18 282 4.8 16.1 0.00 0.74 0.03 67 1004.4
20260506092352 17 275 4.8 16.1 0.00 0.74 0.03 66 1004.4
20260506091629 17 186 4.8 16.1 0.00 0.74 0.03 69 1004.5
20260506091129 17 280 4.8 19.3 0.00 0.74 0.03 68 1004.5